Location: Ellerstadt
(49.4644°N, 8.2615°E)
Time: 14:25:46
(UTC+00:00)

ISS - Pass Details

Date: 17 May 2021
Orbit: 419 x 422 km, 51.6° (Epoch: 25 June)

Event Time Altitude Azimuth Distance (km) Brightness Sun altitude
Rises 23:08:05 0° 282° (WNW) 2,374 0.3 -20.9°
Reaches altitude 10° 23:10:12 10° 286° (WNW) 1,509 -0.7 -20.9°
Maximum altitude 23:13:34 62° 8° (N) 478 -3.3 -21.0°
Enters shadow 23:14:51 33° 77° (ENE) 726 -2.5 -21.0°
